SL-4 R/B

Last updated on Wed Sep 17 2025 00:02:15 GMT+0000 (Coordinated Universal Time)

1 39679U 14021B 25258.85428403 .00012657 00000+0 33022-3 0 9991 2 39679 51.6080 106.6136 0109466 187.8066 172.1215 15.33280888629395

Satellite not in orbit